Погода в Кристианстеде

Американские Виргинские острова     17°44′48″N   64°42′15″W
темп.,
°C
ветер,
м/с
пор.,
м/с
влажн.,
%
обл.,
%
осадки,
мм/ч
давл.,
гПа
погр.,
м
24 июня, чт
чт2423:00+25всв7108458 0.4 1017504
02:00+25в6984100 1.0 1015418
05:00+25всв698485 0.4 1014417
08:00+26в787661 1.1 1016899
11:00+28в787287 1.2 10161057
14:00+28в676954 1.8 10151178
17:00+27всв677252 0.2 10131012
20:00+25в6883100 0.6 1015412
25 июня, пт
пт2523:00+25в6981100 0.6 1016455
02:00+25в5876100 0.6 1014404
05:00+25в6878100 0.0 1014411
08:00+27в787074 0.0 10151090
11:00+28в787043 0.4 10151121
14:00+29в776814 0.6 10141219
17:00+27в677426 0.5 1013912
20:00+25в578620 0.9 1015349
26 июня, сб
сб2623:00+25в478722 0.6 1016307
02:00+24в468916 0.9 1013291
05:00+25вюв578830 0.4 1014305
08:00+27юв567727 0.7 1014840
11:00+29юв6768100 0.2 10151158
14:00+28юв6672100 1.3 1014997
17:00+27вюв5675100 0.7 1014864
20:00+25вюв5885100 1.0 1015364
27 июня, вс
вс2723:00+25вюв6982100 0.2 1016485
02:00+25вюв698395 0.4 1014437
05:00+25вюв7981100 0.1 1014467
08:00+27вюв787692 0.4 1016877
11:00+28вюв8972100 0.5 10161095
14:00+28вюв7874100 1.4 10161014
17:00+27вюв6775100 1.5 1015927
20:00+25вюв6884100 1.8 1017404
28 июня, пн
пн2823:00+26вюв7982100 0.0 1017514
02:00+26вюв7981100 0.6 1016495
05:00+25вюв7108484 0.5 1017504
08:00+27вюв810767 0.6 1018925
11:00+29вюв8106911 0.0 10191196
14:00+29вюв8106716 0.1 10181240
17:00+28в797416 0.2 10171022
20:00+26в6984100 0.4 1019558